AFL205 UHWW-UHSS

Flight info

Callsign AFL205
Flight time N/A
Altitude 37000
Route DOLMA B356 LUBOK W209 RUNUK R810 TIMIT B919 KENOM
Aircraft A20N/M-VGDW/C

Departure

Time 2026-04-10 16:21
Airport Vladivostok International Airport (UHWW)

Arrival

Time N/A
Airport Yuzhno-Sakhalinsk International Airport (UHSS)
Time Latitude Longitude Altitude Speed Heading
2026-04-10 15:46 43.40028 132.16792 44 ft 0 kts 151°
2026-04-10 16:10 43.40027 132.16792 44 ft 1 kts 151°
2026-04-10 16:10 43.39994 132.16817 45 ft 5 kts 155°
2026-04-10 16:11 43.39963 132.16801 46 ft 5 kts 233°
2026-04-10 16:11 43.39946 132.16765 47 ft 4 kts 238°
2026-04-10 16:11 43.39929 132.16725 48 ft 5 kts 241°
2026-04-10 16:11 43.39906 132.16667 49 ft 8 kts 240°
2026-04-10 16:12 43.39875 132.16591 51 ft 10 kts 240°
2026-04-10 16:12 43.39838 132.16499 54 ft 11 kts 241°
2026-04-10 16:12 43.39800 132.16405 58 ft 11 kts 241°
2026-04-10 16:13 43.39765 132.16208 63 ft 11 kts 319°
2026-04-10 16:13 43.39843 132.16144 60 ft 14 kts 332°
2026-04-10 16:13 43.39892 132.16052 59 ft 12 kts 251°
2026-04-10 16:13 43.39853 132.15956 62 ft 10 kts 241°
2026-04-10 16:14 43.39819 132.15872 64 ft 9 kts 241°
2026-04-10 16:14 43.39803 132.15831 65 ft 0 kts 240°
2026-04-10 16:14 43.39801 132.15830 65 ft 1 kts 240°
2026-04-10 16:14 43.39791 132.15804 65 ft 4 kts 240°
2026-04-10 16:15 43.39764 132.15736 66 ft 11 kts 241°
2026-04-10 16:15 43.39718 132.15624 67 ft 15 kts 240°
2026-04-10 16:15 43.39666 132.15491 68 ft 16 kts 241°
2026-04-10 16:15 43.39605 132.15343 64 ft 19 kts 240°
2026-04-10 16:16 43.39544 132.15190 62 ft 17 kts 241°
2026-04-10 16:16 43.39483 132.15039 60 ft 18 kts 240°
2026-04-10 16:16 43.39421 132.14887 59 ft 18 kts 240°
2026-04-10 16:16 43.39358 132.14729 58 ft 18 kts 240°
2026-04-10 16:17 43.39293 132.14571 57 ft 19 kts 241°
2026-04-10 16:17 43.39225 132.14403 54 ft 20 kts 240°
2026-04-10 16:17 43.39156 132.14227 50 ft 21 kts 240°
2026-04-10 16:17 43.39078 132.14041 44 ft 23 kts 242°
2026-04-10 16:18 43.38996 132.13835 36 ft 25 kts 240°
2026-04-10 16:18 43.38907 132.13612 30 ft 26 kts 241°
2026-04-10 16:18 43.38820 132.13399 27 ft 19 kts 241°
2026-04-10 16:18 43.38771 132.13260 27 ft 13 kts 268°
2026-04-10 16:19 43.38827 132.13162 27 ft 13 kts 330°
2026-04-10 16:19 43.38908 132.13106 29 ft 11 kts
2026-04-10 16:19 43.38971 132.13171 27 ft 5 kts 62°
2026-04-10 16:19 43.38976 132.13185 27 ft 2 kts 62°
2026-04-10 16:20 43.38983 132.13207 26 ft 1 kts 62°
2026-04-10 16:20 43.38994 132.13231 26 ft 4 kts 62°
2026-04-10 16:20 43.39004 132.13258 25 ft 1 kts 62°
2026-04-10 16:20 43.39032 132.13332 24 ft 33 kts 61°
2026-04-10 16:21 43.39265 132.13907 36 ft 101 kts 60°
2026-04-10 16:21 43.39703 132.14983 55 ft 155 kts 61°
2026-04-10 16:21 43.40282 132.16419 235 ft 183 kts 62°
2026-04-10 16:21 43.40884 132.17976 813 ft 187 kts 62°
2026-04-10 16:22 43.41470 132.19586 1447 ft 193 kts 63°
2026-04-10 16:22 43.42045 132.21269 2087 ft 195 kts 64°
2026-04-10 16:22 43.42594 132.22972 2652 ft 200 kts 65°
2026-04-10 16:22 43.43173 132.24802 3012 ft 218 kts 64°
2026-04-10 16:23 43.43792 132.26755 3488 ft 229 kts 64°
2026-04-10 16:23 43.44437 132.28809 3948 ft 242 kts 64°
2026-04-10 16:23 43.45128 132.31007 4450 ft 257 kts 63°
2026-04-10 16:23 43.45905 132.33246 4981 ft 269 kts 57°
2026-04-10 16:24 43.46878 132.35513 5607 ft 279 kts 54°
2026-04-10 16:24 43.47915 132.37766 6320 ft 286 kts 53°
2026-04-10 16:24 43.48961 132.40138 7122 ft 292 kts 56°
2026-04-10 16:24 43.49962 132.42537 7904 ft 295 kts 57°
2026-04-10 16:25 43.50980 132.45003 8687 ft 299 kts 57°
2026-04-10 16:25 43.52013 132.47505 9452 ft 303 kts 57°
2026-04-10 16:25 43.53059 132.50017 10228 ft 306 kts 57°
2026-04-10 16:25 43.54132 132.52580 10743 ft 318 kts 57°
2026-04-10 16:26 43.55255 132.55273 11072 ft 336 kts 57°
2026-04-10 16:26 43.56453 132.58136 11512 ft 349 kts 58°
2026-04-10 16:26 43.57653 132.61011 12176 ft 354 kts 58°
2026-04-10 16:26 43.58893 132.63979 12941 ft 356 kts 58°
2026-04-10 16:27 43.60125 132.66933 13577 ft 360 kts 60°
2026-04-10 16:27 43.61374 132.69931 14216 ft 364 kts 60°
2026-04-10 16:27 43.62632 132.72952 14841 ft 368 kts 60°
2026-04-10 16:27 43.63913 132.76030 15490 ft 370 kts 60°
2026-04-10 16:28 43.65197 132.79118 16083 ft 374 kts 60°
2026-04-10 16:28 43.66483 132.82228 16639 ft 379 kts 60°
2026-04-10 16:28 43.67803 132.85410 17251 ft 381 kts 62°
2026-04-10 16:28 43.69115 132.88576 17836 ft 384 kts 62°
2026-04-10 16:29 43.70432 132.91762 18393 ft 387 kts 62°
2026-04-10 16:29 43.71773 132.95009 18924 ft 391 kts 62°
2026-04-10 16:29 43.73124 132.98288 19447 ft 394 kts 62°
2026-04-10 16:29 43.74469 133.01550 19985 ft 397 kts 62°
2026-04-10 16:30 43.75853 133.04910 20539 ft 400 kts 62°
2026-04-10 16:30 43.77213 133.08217 21036 ft 403 kts 62°
2026-04-10 16:30 43.78607 133.11612 21546 ft 406 kts 62°
2026-04-10 16:30 43.80001 133.15010 22068 ft 408 kts 62°
2026-04-10 16:31 43.81392 133.18399 22602 ft 409 kts 62°
2026-04-10 16:31 43.82791 133.21823 23115 ft 411 kts 62°
2026-04-10 16:31 43.84203 133.25279 23527 ft 415 kts 62°
2026-04-10 16:31 43.85628 133.28772 23993 ft 416 kts 62°
2026-04-10 16:32 43.87033 133.32211 24438 ft 418 kts 62°
2026-04-10 16:32 43.88477 133.35757 24850 ft 421 kts 62°
2026-04-10 16:32 43.89902 133.39261 25225 ft 423 kts 62°
2026-04-10 16:32 43.91342 133.42809 25595 ft 426 kts 62°
2026-04-10 16:33 43.92807 133.46420 25942 ft 430 kts 61°
2026-04-10 16:33 43.94279 133.50053 26297 ft 433 kts 62°
2026-04-10 16:33 43.95754 133.53688 26649 ft 435 kts 63°
2026-04-10 16:33 43.97226 133.57333 26984 ft 438 kts 62°
2026-04-10 16:34 43.98714 133.61023 27305 ft 442 kts 62°
2026-04-10 16:34 44.00224 133.64767 27610 ft 445 kts 62°
2026-04-10 16:34 44.01740 133.68530 27951 ft 448 kts 63°
2026-04-10 16:34 44.03269 133.72330 28256 ft 450 kts 63°
2026-04-10 16:35 44.04798 133.76144 28525 ft 454 kts 63°
2026-04-10 16:35 44.06335 133.79973 28799 ft 456 kts 63°
2026-04-10 16:35 44.07876 133.83818 29150 ft 457 kts 63°
2026-04-10 16:35 44.09401 133.87627 29468 ft 457 kts 63°
2026-04-10 16:36 44.10941 133.91489 29807 ft 457 kts 63°
2026-04-10 16:36 44.12490 133.95369 30130 ft 458 kts 63°
2026-04-10 16:36 44.14012 133.99190 30381 ft 458 kts 63°
2026-04-10 16:36 44.15568 134.03114 30615 ft 458 kts 63°
2026-04-10 16:37 44.17086 134.06943 30849 ft 459 kts 63°
2026-04-10 16:37 44.18639 134.10854 31097 ft 460 kts 63°
2026-04-10 16:37 44.20173 134.14726 31327 ft 460 kts 62°
2026-04-10 16:37 44.21726 134.18658 31525 ft 461 kts 62°
2026-04-10 16:38 44.23273 134.22572 31778 ft 463 kts 62°
2026-04-10 16:38 44.24815 134.26477 31961 ft 463 kts 62°
2026-04-10 16:38 44.26348 134.30374 32178 ft 463 kts 62°
2026-04-10 16:38 44.27899 134.34314 32400 ft 464 kts 62°
2026-04-10 16:39 44.29442 134.38238 32613 ft 464 kts 62°
2026-04-10 16:39 44.30998 134.42207 32721 ft 465 kts 61°
2026-04-10 16:39 44.32541 134.46152 32918 ft 466 kts 61°
2026-04-10 16:39 44.34105 134.50143 33170 ft 467 kts 61°
2026-04-10 16:40 44.35656 134.54109 33396 ft 467 kts 61°
2026-04-10 16:40 44.37205 134.58081 33599 ft 467 kts 61°
2026-04-10 16:40 44.38741 134.62021 33825 ft 468 kts 61°
2026-04-10 16:40 44.40304 134.66037 34041 ft 469 kts 62°
2026-04-10 16:41 44.41846 134.70007 34204 ft 469 kts 62°
2026-04-10 16:41 44.43393 134.73999 34378 ft 469 kts 62°
2026-04-10 16:41 44.44952 134.78023 34571 ft 470 kts 62°
2026-04-10 16:41 44.46499 134.82021 34741 ft 471 kts 62°
2026-04-10 16:42 44.48049 134.86035 34889 ft 472 kts 62°
2026-04-10 16:42 44.49615 134.90093 35009 ft 474 kts 62°
2026-04-10 16:42 44.51181 134.94161 35138 ft 475 kts 62°
2026-04-10 16:42 44.52727 134.98181 35295 ft 476 kts 62°
2026-04-10 16:43 44.54295 135.02264 35408 ft 477 kts 62°
2026-04-10 16:43 44.55857 135.06339 35526 ft 478 kts 62°
2026-04-10 16:43 44.57441 135.10478 35609 ft 479 kts 62°
2026-04-10 16:43 44.59013 135.14589 35720 ft 480 kts 61°
2026-04-10 16:44 44.60570 135.18671 35791 ft 481 kts 61°
2026-04-10 16:44 44.62160 135.22839 35923 ft 483 kts 62°
2026-04-10 16:44 44.63726 135.26952 36005 ft 483 kts 62°
2026-04-10 16:45 44.66893 135.35295 36152 ft 486 kts 62°
2026-04-10 16:45 44.70058 135.43654 36338 ft 487 kts 61°
2026-04-10 16:46 44.73236 135.52072 36366 ft 488 kts 61°
2026-04-10 16:46 44.76387 135.60446 36346 ft 487 kts 62°
2026-04-10 16:47 44.79553 135.68881 36356 ft 487 kts 62°
2026-04-10 16:47 44.82684 135.77252 36357 ft 485 kts 62°
2026-04-10 16:48 44.85814 135.85654 36373 ft 486 kts 62°
2026-04-10 16:48 44.88930 135.94035 36333 ft 485 kts 62°
2026-04-10 16:49 44.92050 136.02455 36388 ft 485 kts 62°
2026-04-10 16:49 44.95160 136.10872 36369 ft 486 kts 62°
2026-04-10 16:50 44.98266 136.19308 36401 ft 486 kts 62°
2026-04-10 16:50 45.01373 136.27771 36377 ft 485 kts 62°
2026-04-10 16:51 45.04448 136.36166 36410 ft 484 kts 62°